| time (UTC) | temp F | wind direction | speed MPH | gust MPH | rain 1hr in | rain 24hr in | rain mn in | humidity % | barometer mb |
| 20260510033315 | 71 | 158 | 11.0 | 17.0 | 0.01 | 0.02 | 0.02 | 69 | 1007.6 |
| 20260510032315 | 71 | 180 | 11.0 | 16.0 | 0.01 | 0.02 | 0.02 | 70 | 1008.0 |
| 20260510031316 | 72 | 158 | 9.0 | 15.0 | 0.01 | 0.02 | 0.02 | 67 | 1007.5 |
| 20260510030316 | 72 | 158 | 12.0 | 20.0 | 0.01 | 0.02 | 0.02 | 66 | 1009.7 |
| 20260510025315 | 73 | 180 | 12.0 | 20.0 | 0.00 | 0.01 | 0.01 | 65 | 1010.9 |
| 20260510024315 | 73 | 180 | 10.0 | 13.0 | 0.00 | 0.01 | 0.01 | 64 | 1010.8 |
| 20260510023315 | 72 | 270 | 4.0 | 6.0 | 0.00 | 0.01 | 0.01 | 66 | 1010.1 |
| 20260510022335 | 73 | 90 | 4.0 | 5.0 | 0.00 | 0.01 | 0.01 | 64 | 1008.5 |
| 20260510021315 | 72 | 180 | 7.0 | 11.0 | 0.00 | 0.01 | 0.01 | 67 | 1008.1 |
| 20260510020316 | 72 | 158 | 6.0 | 7.0 | 0.00 | 0.01 | 0.01 | 67 | 1008.5 |
| 20260510015335 | 72 | 225 | 4.0 | 5.0 | 0.00 | 0.01 | 0.01 | 68 | 1008.5 |
| 20260510014315 | 73 | 0.0 | 0.0 | 0.00 | 0.01 | 0.01 | 64 | 1008.0 | |
| 20260510013315 | 74 | 0.0 | 0.0 | 0.00 | 0.01 | 0.01 | 62 | 1008.0 | |
| 20260510012315 | 74 | 90 | 1.0 | 2.0 | 0.00 | 0.01 | 0.01 | 61 | 1007.1 |
| 20260510011317 | 75 | 0.0 | 0.0 | 0.00 | 0.01 | 0.01 | 60 | 1007.2 | |
| 20260510010317 | 75 | 0.0 | 0.0 | 0.00 | 0.01 | 0.01 | 57 | 1007.2 | |
| 20260510005337 | 76 | 135 | 1.0 | 2.0 | 0.00 | 0.01 | 0.01 | 56 | 1007.0 |
| 20260510004317 | 77 | 0.0 | 0.0 | 0.00 | 0.01 | 0.01 | 55 | 1007.3 | |
| 20260510003317 | 77 | 0.0 | 1.0 | 0.00 | 0.01 | 0.01 | 53 | 1007.2 | |
| 20260510002317 | 78 | 135 | 2.0 | 3.0 | 0.00 | 0.01 | 0.01 | 52 | 1006.9 |
| 20260510001317 | 79 | 135 | 1.0 | 2.0 | 0.00 | 0.01 | 0.01 | 50 | 1007.1 |
| 20260510000337 | 79 | 113 | 1.0 | 2.0 | 0.00 | 0.01 | 0.01 | 48 | 1007.2 |
| 20260509235317 | 80 | 113 | 3.0 | 6.0 | 0.00 | 0.14 | 0.01 | 45 | 1007.2 |
| 20260509234357 | 82 | 113 | 2.0 | 3.0 | 0.00 | 0.15 | 0.01 | 43 | 1007.4 |
| 20260509233337 | 82 | 90 | 3.0 | 4.0 | 0.00 | 0.40 | 0.01 | 42 | 1007.4 |
| 20260509232317 | 82 | 113 | 4.0 | 6.0 | 0.00 | 0.42 | 0.01 | 41 | 1007.7 |
| 20260509231317 | 83 | 113 | 3.0 | 7.0 | 0.00 | 0.42 | 0.01 | 39 | 1007.9 |
| 20260509230317 | 83 | 113 | 3.0 | 6.0 | 0.00 | 0.42 | 0.01 | 39 | 1008.1 |
| 20260509225317 | 83 | 90 | 6.0 | 8.0 | 0.00 | 0.42 | 0.01 | 39 | 1008.3 |
| 20260509224317 | 83 | 90 | 4.0 | 6.0 | 0.00 | 0.42 | 0.01 | 40 | 1008.5 |
| 20260509223317 | 83 | 113 | 4.0 | 7.0 | 0.00 | 0.42 | 0.01 | 41 | 1008.5 |
| 20260509222337 | 83 | 90 | 5.0 | 9.0 | 0.00 | 0.42 | 0.01 | 40 | 1008.6 |
| 20260509221338 | 83 | 113 | 3.0 | 6.0 | 0.00 | 0.42 | 0.01 | 33 | 1008.6 |
| 20260509220317 | 83 | 90 | 5.0 | 8.0 | 0.00 | 0.42 | 0.01 | 34 | 1008.6 |
| 20260509215316 | 83 | 45 | 2.0 | 4.0 | 0.00 | 0.42 | 0.01 | 38 | 1008.7 |
| 20260509214316 | 83 | 90 | 5.0 | 7.0 | 0.00 | 0.42 | 0.01 | 34 | 1008.7 |
| 20260509213317 | 83 | 113 | 6.0 | 8.0 | 0.00 | 0.42 | 0.01 | 29 | 1008.8 |
| 20260509212317 | 83 | 135 | 1.0 | 3.0 | 0.00 | 0.42 | 0.01 | 29 | 1008.8 |
| 20260509211337 | 82 | 68 | 4.0 | 6.0 | 0.00 | 0.42 | 0.01 | 36 | 1008.9 |
| 20260509210317 | 82 | 113 | 2.0 | 3.0 | 0.00 | 0.42 | 0.01 | 37 | 1008.8 |
| 20260509205316 | 83 | 90 | 4.0 | 7.0 | 0.00 | 0.42 | 0.01 | 35 | 1009.0 |
| 20260509204337 | 82 | 113 | 6.0 | 8.0 | 0.00 | 0.42 | 0.01 | 39 | 1009.2 |
| 20260509203316 | 83 | 90 | 3.0 | 4.0 | 0.00 | 0.42 | 0.01 | 37 | 1009.3 |
| 20260509202316 | 82 | 68 | 3.0 | 7.0 | 0.00 | 0.42 | 0.01 | 39 | 1009.4 |
| 20260509201316 | 82 | 90 | 2.0 | 4.0 | 0.00 | 0.42 | 0.01 | 36 | 1009.4 |
| 20260509200437 | 82 | 68 | 2.0 | 3.0 | 0.00 | 0.42 | 0.01 | 36 | 1009.5 |
| 20260509195317 | 81 | 90 | 6.0 | 8.0 | 0.00 | 0.42 | 0.01 | 38 | 1009.6 |
| 20260509194316 | 81 | 135 | 2.0 | 4.0 | 0.00 | 0.42 | 0.01 | 39 | 1009.7 |
| 20260509193317 | 81 | 90 | 1.0 | 2.0 | 0.00 | 0.42 | 0.01 | 41 | 1009.7 |
| 20260509192316 | 81 | 135 | 4.0 | 6.0 | 0.00 | 0.42 | 0.01 | 46 | 1009.7 |
| 20260509191316 | 81 | 45 | 2.0 | 4.0 | 0.00 | 0.42 | 0.01 | 41 | 1009.9 |
| 20260509190317 | 80 | 90 | 3.0 | 4.0 | 0.00 | 0.42 | 0.01 | 46 | 1010.1 |
| 20260509185316 | 80 | 113 | 3.0 | 4.0 | 0.00 | 0.42 | 0.01 | 48 | 1010.1 |
| 20260509184316 | 80 | 68 | 3.0 | 4.0 | 0.00 | 0.42 | 0.01 | 47 | 1010.3 |
| 20260509183316 | 80 | 338 | 2.0 | 4.0 | 0.00 | 0.42 | 0.01 | 47 | 1010.5 |
| 20260509182316 | 80 | 158 | 4.0 | 6.0 | 0.00 | 0.42 | 0.01 | 45 | 1010.8 |
| 20260509181336 | 79 | 90 | 5.0 | 7.0 | 0.00 | 0.42 | 0.01 | 47 | 1010.7 |
| 20260509180317 | 79 | 68 | 3.0 | 4.0 | 0.00 | 0.42 | 0.01 | 44 | 1010.9 |
| 20260509175316 | 79 | 225 | 2.0 | 4.0 | 0.00 | 0.42 | 0.01 | 50 | 1011.1 |
| 20260509174336 | 78 | 68 | 4.0 | 5.0 | 0.00 | 0.42 | 0.01 | 55 | 1011.2 |
| 20260509173316 | 78 | 90 | 4.0 | 6.0 | 0.00 | 0.42 | 0.01 | 54 | 1011.3 |
| 20260509172356 | 79 | 113 | 3.0 | 6.0 | 0.00 | 0.42 | 0.01 | 62 | 1011.5 |
| 20260509171316 | 77 | 68 | 1.0 | 5.0 | 0.00 | 0.42 | 0.01 | 62 | 1011.4 |
| 20260509170316 | 77 | 270 | 2.0 | 3.0 | 0.00 | 0.42 | 0.01 | 65 | 1011.4 |
| 20260509165316 | 77 | 0.0 | 2.0 | 0.00 | 0.42 | 0.01 | 66 | 1011.5 | |
| 20260509164416 | 77 | 180 | 2.0 | 5.0 | 0.00 | 0.42 | 0.01 | 67 | 1011.6 |
| 20260509163317 | 75 | 135 | 2.0 | 5.0 | 0.00 | 0.42 | 0.01 | 69 | 1011.4 |
| 20260509162316 | 75 | 135 | 3.0 | 4.0 | 0.00 | 0.42 | 0.01 | 69 | 1011.4 |
| 20260509161316 | 74 | 113 | 2.0 | 3.0 | 0.00 | 0.42 | 0.01 | 76 | 1011.6 |
| 20260509160316 | 74 | 203 | 5.0 | 8.0 | 0.00 | 0.42 | 0.01 | 75 | 1011.5 |
| 20260509155316 | 73 | 113 | 3.0 | 4.0 | 0.00 | 0.42 | 0.01 | 76 | 1011.6 |
| 20260509154315 | 73 | 90 | 3.0 | 4.0 | 0.00 | 0.42 | 0.01 | 79 | 1011.5 |
| 20260509153315 | 72 | 158 | 4.0 | 6.0 | 0.00 | 0.42 | 0.01 | 77 | 1011.6 |
| 20260509152315 | 71 | 113 | 3.0 | 6.0 | 0.00 | 0.42 | 0.01 | 79 | 1011.4 |
| 20260509151315 | 70 | 113 | 5.0 | 7.0 | 0.00 | 0.42 | 0.01 | 80 | 1011.4 |
| 20260509150416 | 71 | 135 | 3.0 | 6.0 | 0.00 | 0.42 | 0.01 | 80 | 1011.3 |
| 20260509145316 | 70 | 113 | 3.0 | 4.0 | 0.00 | 0.42 | 0.01 | 84 | 1011.5 |
| 20260509144315 | 70 | 90 | 4.0 | 6.0 | 0.00 | 0.42 | 0.01 | 86 | 1011.4 |
| 20260509143316 | 68 | 0.0 | 1.0 | 0.00 | 0.42 | 0.01 | 89 | 1011.3 | |
| 20260509142316 | 67 | 180 | 3.0 | 4.0 | 0.01 | 0.42 | 0.01 | 90 | 1011.3 |
| 20260509141315 | 67 | 113 | 1.0 | 2.0 | 0.01 | 0.42 | 0.01 | 93 | 1011.4 |
| 20260509140315 | 66 | 0.0 | 2.0 | 0.01 | 0.42 | 0.01 | 93 | 1011.2 | |
| 20260509135316 | 65 | 0.0 | 0.0 | 0.01 | 0.42 | 0.01 | 94 | 1011.0 | |
| 20260509134315 | 64 | 113 | 2.0 | 2.0 | 0.01 | 0.42 | 0.01 | 94 | 1010.9 |
| 20260509133315 | 62 | 0.0 | 1.0 | 0.01 | 0.42 | 0.01 | 94 | 1010.8 | |
| 20260509132315 | 62 | 0.0 | 0.0 | 0.00 | 0.41 | 0.00 | 94 | 1010.7 | |
| 20260509131315 | 61 | 0.0 | 0.0 | 0.00 | 0.41 | 0.00 | 94 | 1010.4 | |
| 20260509130315 | 60 | 0.0 | 0.0 | 0.00 | 0.41 | 0.00 | 94 | 1010.2 | |
| 20260509125316 | 58 | 113 | 2.0 | 3.0 | 0.00 | 0.41 | 0.00 | 94 | 1010.1 |
| 20260509124315 | 58 | 0.0 | 0.0 | 0.00 | 0.41 | 0.00 | 94 | 1009.9 | |
| 20260509123317 | 57 | 0.0 | 0.0 | 0.00 | 0.41 | 0.00 | 94 | 1009.9 | |
| 20260509122317 | 56 | 0.0 | 0.0 | 0.00 | 0.41 | 0.00 | 94 | 1009.8 | |
| 20260509121317 | 55 | 0.0 | 0.0 | 0.00 | 0.41 | 0.00 | 93 | 1009.5 | |
| 20260509120317 | 55 | 0.0 | 0.0 | 0.00 | 0.41 | 0.00 | 94 | 1009.4 | |
| 20260509115317 | 54 | 135 | 1.0 | 2.0 | 0.00 | 0.41 | 0.00 | 93 | 1009.8 |
| 20260509114317 | 55 | 0.0 | 0.0 | 0.00 | 0.41 | 0.00 | 93 | 1009.7 | |
| 20260509113317 | 55 | 0.0 | 0.0 | 0.00 | 0.41 | 0.00 | 93 | 1009.7 | |
| 20260509112317 | 55 | 0.0 | 0.0 | 0.00 | 0.41 | 0.00 | 93 | 1009.7 | |
| 20260509111317 | 56 | 0.0 | 0.0 | 0.00 | 0.41 | 0.00 | 93 | 1009.6 | |
| 20260509110317 | 57 | 0.0 | 0.0 | 0.00 | 0.41 | 0.00 | 93 | 1009.4 | |
| 20260509105317 | 56 | 0.0 | 0.0 | 0.00 | 0.41 | 0.00 | 93 | 1009.4 | |
| 20260509104318 | 55 | 0.0 | 0.0 | 0.00 | 0.41 | 0.00 | 93 | 1009.4 | |
| 20260509103317 | 55 | 0.0 | 0.0 | 0.00 | 0.41 | 0.00 | 93 | 1009.6 | |
| 20260509102317 | 55 | 0.0 | 0.0 | 0.00 | 0.41 | 0.00 | 93 | 1009.9 | |
| 20260509101317 | 55 | 0.0 | 0.0 | 0.00 | 0.41 | 0.00 | 93 | 1010.2 | |
| 20260509100317 | 55 | 0.0 | 0.0 | 0.00 | 0.41 | 0.00 | 93 | 1010.2 | |
| 20260509095337 | 55 | 0.0 | 0.0 | 0.00 | 0.41 | 0.00 | 93 | 1010.2 | |
| 20260509094338 | 55 | 0.0 | 0.0 | 0.00 | 0.41 | 0.00 | 93 | 1010.1 | |
| 20260509093316 | 55 | 0.0 | 0.0 | 0.00 | 0.41 | 0.00 | 93 | 1010.0 | |
| 20260509092316 | 55 | 0.0 | 0.0 | 0.00 | 0.41 | 0.00 | 93 | 1010.0 | |
| 20260509091317 | 56 | 0.0 | 0.0 | 0.00 | 0.41 | 0.00 | 93 | 1010.1 | |
| 20260509090317 | 56 | 0.0 | 0.0 | 0.00 | 0.41 | 0.00 | 93 | 1010.1 | |
| 20260509085317 | 57 | 0.0 | 0.0 | 0.00 | 0.41 | 0.00 | 93 | 1010.0 | |
| 20260509084337 | 57 | 0.0 | 0.0 | 0.00 | 0.41 | 0.00 | 93 | 1010.0 | |
| 20260509083317 | 58 | 0.0 | 0.0 | 0.00 | 0.41 | 0.00 | 93 | 1010.1 | |
| 20260509082317 | 57 | 0.0 | 0.0 | 0.00 | 0.41 | 0.00 | 93 | 1010.2 | |
| 20260509081336 | 57 | 0.0 | 0.0 | 0.00 | 0.41 | 0.00 | 92 | 1010.3 | |
| 20260509080316 | 58 | 0.0 | 0.0 | 0.00 | 0.41 | 0.00 | 92 | 1010.3 | |
| 20260509075317 | 58 | 0.0 | 0.0 | 0.00 | 0.41 | 0.00 | 92 | 1010.5 | |
| 20260509074316 | 58 | 0.0 | 0.0 | 0.00 | 0.41 | 0.00 | 92 | 1010.5 | |
| 20260509073316 | 58 | 0.0 | 0.0 | 0.00 | 0.41 | 0.00 | 92 | 1010.5 | |
| 20260509072317 | 58 | 0.0 | 0.0 | 0.00 | 0.41 | 0.00 | 92 | 1010.7 | |
| 20260509071336 | 58 | 0.0 | 0.0 | 0.00 | 0.41 | 0.00 | 92 | 1010.6 | |
| 20260509070316 | 59 | 0.0 | 0.0 | 0.00 | 0.41 | 0.00 | 92 | 1010.6 | |
| 20260509065316 | 59 | 0.0 | 0.0 | 0.00 | 0.41 | 0.00 | 92 | 1010.9 | |
| 20260509064316 | 59 | 23 | 1.0 | 2.0 | 0.00 | 0.41 | 0.00 | 92 | 1010.9 |
| 20260509063316 | 60 | 0.0 | 0.0 | 0.00 | 0.41 | 0.00 | 92 | 1011.0 | |
| 20260509062316 | 60 | 0.0 | 0.0 | 0.00 | 0.41 | 0.00 | 92 | 1011.0 | |
| 20260509061316 | 60 | 0.0 | 0.0 | 0.00 | 0.41 | 0.00 | 92 | 1011.2 | |
| 20260509060316 | 60 | 0.0 | 0.0 | 0.00 | 0.41 | 0.00 | 92 | 1011.4 | |
| 20260509055316 | 61 | 0.0 | 0.0 | 0.00 | 0.41 | 0.00 | 92 | 1011.4 | |
| 20260509054316 | 61 | 23 | 1.0 | 1.0 | 0.00 | 0.41 | 0.00 | 92 | 1011.5 |
| 20260509053316 | 60 | 23 | 1.0 | 2.0 | 0.00 | 0.41 | 0.00 | 92 | 1011.3 |
| 20260509052316 | 60 | 23 | 1.0 | 3.0 | 0.00 | 0.41 | 0.00 | 92 | 1011.1 |
| 20260509051336 | 60 | 23 | 3.0 | 4.0 | 0.00 | 0.41 | 0.00 | 92 | 1010.5 |
| 20260509050336 | 60 | 0 | 4.0 | 5.0 | 0.00 | 0.41 | 0.00 | 92 | 1010.2 |
| 20260509045316 | 60 | 23 | 6.0 | 8.0 | 0.00 | 0.41 | 0.41 | 92 | 1009.8 |
| 20260509044316 | 60 | 23 | 2.0 | 3.0 | 0.00 | 0.41 | 0.41 | 91 | 1010.0 |
| 20260509043316 | 60 | 0.0 | 0.0 | 0.00 | 0.41 | 0.41 | 91 | 1010.0 | |
| 20260509042316 | 60 | 68 | 2.0 | 2.0 | 0.00 | 0.41 | 0.41 | 91 | 1010.0 |
| 20260509041315 | 60 | 45 | 2.0 | 2.0 | 0.00 | 0.41 | 0.41 | 91 | 1010.0 |
| 20260509040356 | 61 | 68 | 2.0 | 3.0 | 0.00 | 0.41 | 0.41 | 91 | 1010.1 |
| 20260509035315 | 60 | 180 | 2.0 | 3.0 | 0.00 | 0.41 | 0.41 | 91 | 1010.2 |
| 20260509034336 | 61 | 203 | 2.0 | 2.0 | 0.00 | 0.41 | 0.41 | 90 | 1009.8 |